Terminal Aerodrome Forecast
Issued by NWS Northern Indiana

Home | Current Version | Previous Version | Graphics & Text | Print | Product List | Glossary On
Versions: 1 2 3 4 5 6 7 8 9 10 11 12
000
FTUS43 KIWX 011731
TAFFWA
TAF
KFWA 011731Z 0118/0218 26015G24KT P6SM OVC020
     FM020200 25009KT P6SM OVC020=

USA.gov is the U.S. government's official web portal to all federal, state and local government web resources and services.